Temp
23 23 24 28 27 29 30 34 37 35 34 34 34 33 33 33 33 31 31 30 30 27 26 27 26 25 25 25 25 25 25 25 25 24 24 24 24 24 23 22 22 22 21 21 21 21 21 21 21
21 24 27 29 28 29 32 36 35 33 33 33 33 33 33 33 34 33 31 29 29 29 26 26 25 25 25 24 25 25 25 25 25 24 24 24 24 23 23 22 22 21 21 21 21 20 20 20 21
22 25 28 29 29 29 32 35 34 33 33 33 32 33 33 33 32 32 30 29 28 29 27 24 25 25 24 24 24 24 25 24 24 24 23 24 24 23 23 22 22 21 21 21 20 20 20 20 20
25 28 28 28 29 32 33 35 34 33 33 33 33 32 34 32 31 31 30 28 28 28 29 26 24 24 24 23 24 24 24 24 24 24 23 24 23 23 23 22 22 21 21 21 21 20 20 20 20
26 28 28 28 30 31 33 35 34 32 33 33 33 31 32 32 31 30 29 28 26 27 27 26 25 24 23 23 23 23 24 24 24 24 23 23 23 23 23 22 22 21 21 21 21 21 20 20 20
27 28 27 28 30 33 35 35 33 32 32 32 32 32 32 33 32 30 29 28 26 25 25 25 24 24 23 23 23 23 23 23 23 23 22 23 23 23 22 22 22 22 21 21 20 20 20 20 20
25 27 27 29 30 31 33 35 33 32 32 32 33 31 32 33 30 29 29 29 28 25 25 24 24 23 22 23 22 22 23 23 22 22 22 22 22 22 22 22 22 22 21 21 21 21 20 20 20
26 27 26 28 29 30 33 34 33 31 31 32 31 29 29 31 29 29 29 29 29 25 24 24 23 22 21 22 22 21 22 22 22 22 22 22 21 22 22 22 21 21 21 21 21 21 20 20 20
28 25 25 27 29 31 33 33 32 32 31 31 31 30 30 30 29 29 29 29 29 26 24 24 23 22 20 20 21 21 21 21 21 22 21 21 21 21 20 21 21 21 20 20 20 20 20 20 20
26 25 26 29 30 31 32 31 32 30 30 29 29 31 31 30 29 28 29 29 29 29 25 24 23 22 21 22 21 21 21 21 21 21 21 21 20 20 20 20 20 20 20 20 20 20 20 19 19
26 25 26 28 29 29 29 30 30 29 29 30 29 30 30 30 29 28 28 28 29 29 26 22 23 22 21 22 22 21 20 20 20 20 20 21 20 21 21 21 21 20 20 19 19 19 19 19 19
25 27 27 27 28 28 28 29 28 28 29 30 30 30 29 29 28 27 27 28 29 28 28 25 23 22 22 21 21 21 22 21 21 21 21 21 21 21 22 22 21 21 20 20 19 19 19 19 19
25 26 27 28 28 28 28 27 27 28 29 30 30 30 29 28 28 28 28 28 28 28 26 25 24 23 22 21 21 21 22 22 22 22 21 21 21 22 22 22 22 21 21 20 20 20 20 20 20
24 25 25 26 27 27 27 27 27 28 29 29 29 29 29 28 28 28 28 28 27 26 25 24 23 22 22 22 22 21 21 22 22 22 22 21 22 22 23 23 23 22 22 22 21 21 21 20 20
24 23 24 25 25 26 27 26 26 28 28 28 28 28 29 28 28 28 27 26 26 25 24 23 22 22 21 21 21 22 22 21 22 22 22 22 22 21 22 23 23 23 22 22 22 21 21 20 20
22 22 22 24 26 27 26 24 26 28 28 28 28 28 28 28 28 27 25 24 24 24 22 21 21 20 20 20 20 21 21 23 22 22 22 21 21 21 20 21 22 22 23 22 21 21 21 20 19
21 20 21 23 26 27 27 26 27 28 28 28 28 28 28 27 27 26 24 24 23 22 21 20 20 19 19 19 19 19 20 21 22 22 22 22 20 20 19 20 21 22 22 21 20 20 20 19 19
20 22 23 23 25 26 26 27 28 28 28 27 27 28 28 27 27 24 23 22 21 20 19 19 18 17 17 18 18 19 19 20 21 22 22 22 21 20 19 19 20 20 20 20 20 19 19 19 19
22 21 21 23 24 24 24 23 27 27 27 27 26 27 27 27 25 23 22 21 20 19 18 16 16 16 15 16 17 17 18 20 21 21 22 23 22 20 19 19 19 19 19 19 18 18 19 18 18
20 19 19 20 22 22 21 19 19 27 27 27 27 27 27 26 24 23 21 20 19 18 16 15 15 14 13 14 14 14 14 15 16 18 20 21 22 22 20 19 19 19 18 18 18 17 17 17 18
19 19 18 18 19 20 19 17 19 24 26 27 28 28 27 24 23 22 21 19 18 17 15 14 13 12 12 12 12 13 13 14 16 17 19 20 22 22 21 19 19 19 18 16 17 17 16 17 16
17 19 18 17 16 14 18 15 18 22 24 26 27 26 24 22 22 21 20 18 18 16 14 13 12 12 11 11 10 10 10 11 12 13 16 20 21 21 21 20 18 18 19 18 17 17 16 17 16
17 15 15 14 14 14 15 15 18 22 22 24 24 23 21 20 20 19 18 17 16 14 13 12 10 10 9 9 8 7 7 8 10 11 13 16 18 21 21 19 18 18 17 17 17 17 16 16 16
14 13 14 13 13 12 15 16 16 19 23 24 23 21 20 19 19 18 17 16 14 13 12 10 8 8 8 7 6 5 5 6 7 8 10 12 16 19 20 20 18 17 17 17 17 18 16 16 17
14 11 12 12 13 15 18 16 16 20 19 23 18 19 19 18 17 17 16 14 13 12 10 8 7 7 7 6 4 4 4 4 5 7 8 10 13 17 18 19 18 17 16 17 17 16 15 16 16
15 12 13 13 14 16 18 13 15 16 18 17 15 16 18 17 16 15 15 13 12 11 9 7 6 6 5 4 4 3 3 4 5 6 8 9 12 15 18 16 19 18 17 16 16 17 16 16 16
13 12 14 14 13 13 15 16 16 16 17 15 14 15 16 16 15 14 14 12 11 10 9 7 5 4 4 3 3 2 3 4 5 6 7 9 11 14 18 17 17 16 17 17 16 14 14 15 16
16 16 12 11 13 14 18 17 15 16 16 16 15 15 15 15 14 14 13 12 10 9 8 6 4 3 2 2 2 2 2 3 4 5 7 11 13 16 18 17 16 16 16 16 15 16 16 16 16
17 17 13 12 15 14 16 14 12 11 12 14 16 15 14 14 13 12 12 11 9 8 6 5 4 2 1 1 1 1 1 2 3 4 5 7 12 17 18 17 16 15 15 15 15 15 15 16 16
18 17 13 12 13 13 13 14 12 10 13 16 16 15 14 13 11 11 11 9 8 7 5 4 3 2 -0 -0 0 1 0 1 2 2 3 5 7 14 17 17 17 15 15 15 15 15 15 15 15
Height
766 765 765 761 776 759 755 731 696 709 712 708 712 721 727 721 728 752 729 732 732 732 733 735 737 740 743 747 750 753 756 759 762 765 769 772 775 778 781 785 789 791 793 795 796 798 800 802 803
766 765 763 757 771 768 742 704 712 714 713 713 718 723 725 728 714 721 726 731 733 732 732 734 738 741 744 747 750 753 756 759 762 765 768 772 776 779 782 785 788 792 794 796 798 799 800 802 803
766 763 763 758 756 762 743 709 712 715 714 716 722 716 722 725 720 725 730 732 733 733 731 733 736 740 744 747 750 752 755 758 761 764 768 771 774 778 781 784 787 790 793 797 799 800 801 803 803
766 760 758 764 757 733 723 708 707 713 716 717 718 728 715 718 724 728 731 733 733 732 733 731 736 739 743 747 750 752 754 757 760 763 767 770 774 777 780 784 786 789 792 795 798 800 802 803 803
767 758 763 757 747 731 716 704 703 717 715 716 717 729 724 718 722 727 730 732 733 732 731 733 736 740 743 746 750 752 755 757 760 762 766 770 773 777 780 783 785 788 791 794 795 797 800 802 803
767 754 766 760 740 717 703 697 705 713 715 719 721 723 722 719 721 726 729 731 732 733 733 734 736 739 742 745 749 752 754 757 760 762 765 768 772 775 778 782 784 787 790 793 795 797 798 800 802
769 762 762 749 740 727 713 693 707 713 717 719 711 725 718 717 722 726 729 730 730 732 735 734 736 739 741 744 748 751 753 756 759 762 765 767 770 773 777 780 783 785 788 791 793 794 796 800 802
759 760 763 751 745 734 709 701 704 716 720 710 715 731 731 720 725 727 728 728 728 729 733 736 735 737 739 742 746 749 752 755 758 761 763 766 770 772 776 778 782 784 787 790 791 793 794 795 800
753 765 766 750 739 725 704 707 705 706 713 716 714 719 719 718 723 727 727 726 725 726 729 734 736 737 740 742 744 748 751 754 757 760 762 764 766 769 773 775 779 782 786 789 790 792 794 795 796
756 760 749 733 722 720 710 712 707 715 717 719 718 714 715 720 722 726 726 725 723 724 725 729 733 736 739 742 743 746 749 752 754 757 759 762 765 768 770 772 776 779 783 786 788 789 791 794 796
748 752 743 733 724 721 720 718 713 716 718 712 716 713 711 714 718 723 726 726 723 722 724 726 728 733 737 740 741 744 746 750 752 755 757 760 763 766 767 770 772 775 779 783 786 787 788 790 794
752 739 736 733 729 727 724 717 720 718 713 706 706 707 710 714 717 720 723 723 722 723 724 724 725 730 733 738 740 742 744 746 749 751 754 757 760 763 765 767 768 771 774 778 782 784 786 787 789
743 736 728 724 723 721 720 722 719 713 709 705 704 706 708 710 713 716 719 719 720 722 725 726 730 732 732 736 740 741 741 743 745 748 749 752 754 758 761 762 764 766 769 771 776 779 781 784 785
743 738 733 729 723 720 725 716 716 708 707 704 704 703 704 707 710 710 714 717 720 724 727 728 730 731 732 734 735 738 739 740 741 744 746 749 751 753 755 758 760 761 763 767 770 774 778 779 781
737 740 731 727 725 721 721 713 711 704 703 701 700 699 701 704 707 708 712 717 722 725 728 731 734 733 732 731 732 735 736 738 739 739 742 743 746 747 750 752 754 757 758 761 765 768 772 775 777
749 744 743 720 717 706 718 707 704 692 692 695 696 696 697 701 703 707 712 718 723 728 731 734 735 735 734 732 730 730 731 734 734 736 736 735 738 742 745 747 747 750 754 755 758 762 765 769 772
745 745 741 717 709 702 701 696 688 688 687 686 689 692 694 700 702 708 715 720 725 729 733 736 736 736 734 733 732 730 729 728 730 731 731 730 731 735 741 742 743 745 747 750 753 755 758 763 768
745 735 719 713 706 697 693 687 681 681 678 688 689 690 692 696 700 709 717 721 727 731 735 736 735 736 735 733 731 730 728 726 726 726 725 726 727 728 731 736 737 738 740 744 747 749 753 756 762
731 730 729 713 705 707 703 710 684 679 681 683 691 689 690 693 701 712 720 724 729 733 735 736 735 735 734 732 731 729 727 725 723 721 721 720 720 721 724 727 731 733 735 738 739 744 747 751 757
734 735 734 727 716 714 711 716 712 678 676 674 682 683 685 690 702 713 721 727 732 734 735 736 736 735 734 733 730 728 726 723 720 716 713 713 713 713 717 719 721 726 729 731 730 733 741 745 748
734 733 740 737 728 722 720 724 708 686 673 670 669 673 675 688 702 713 723 732 734 734 735 736 736 736 735 733 730 727 724 720 716 713 708 704 704 705 706 712 713 716 719 705 732 733 733 738 740
739 733 735 739 747 750 733 732 710 690 677 668 665 672 681 694 705 715 726 734 734 735 737 738 737 735 733 732 730 729 725 721 717 711 705 700 697 694 696 698 703 707 712 721 724 728 732 733 735
734 749 750 754 753 746 731 736 698 683 681 674 670 679 695 705 712 721 732 735 734 736 738 739 738 736 733 731 731 729 725 721 715 709 701 695 690 684 684 683 689 694 700 711 711 717 725 729 730
745 757 753 753 751 747 718 728 709 694 670 660 670 689 704 712 719 728 732 733 737 739 740 740 738 736 735 733 730 728 723 716 711 706 699 691 682 678 676 678 682 685 690 697 699 700 718 721 721
745 763 754 750 743 718 700 717 712 688 685 657 690 704 709 714 720 732 734 736 740 740 740 740 737 736 738 733 730 725 719 713 706 700 694 687 677 675 676 665 675 678 679 688 694 702 691 710 714
736 751 741 738 728 714 702 725 714 702 692 691 707 712 714 717 725 733 736 739 742 743 741 740 737 739 739 732 727 721 714 707 700 693 687 679 670 674 673 674 670 670 673 684 691 698 703 701 714
739 748 730 737 735 733 715 706 706 702 695 708 719 723 722 721 732 736 737 740 743 745 744 743 742 744 739 732 725 716 709 701 694 686 679 669 663 661 665 665 663 663 670 678 684 693 694 697 700
719 720 742 747 734 724 691 695 708 703 706 710 721 728 729 733 733 737 740 743 747 747 747 745 746 745 737 730 724 714 705 697 690 681 670 660 656 654 652 652 657 662 666 671 678 684 688 692 692
710 712 733 737 717 720 705 716 721 722 721 718 718 723 726 731 742 745 743 743 746 751 750 748 745 742 734 729 722 710 703 693 686 675 666 657 651 650 650 651 654 657 660 665 670 675 680 677 684
699 708 727 730 726 725 722 717 730 738 725 716 716 724 732 739 745 748 748 747 750 753 752 750 747 741 736 730 719 710 702 692 686 675 668 660 652 644 645 645 648 649 654 659 665 667 673 676 683
Wind_Speed
9 9 11 14 6 7 14 17 20 7 3 10 7 4 10 7 7 5 19 16 9 7 12 21 25 22 21 20 18 16 15 14 14 14 14 15 15 14 14 14 14 14 14 12 12 13 12 11 10
9 14 12 6 7 10 12 13 7 17 16 8 1 6 7 6 6 4 11 17 10 3 12 18 25 22 22 20 19 17 15 14 14 15 16 17 17 15 14 16 16 15 12 10 10 10 9 10 10
8 12 6 5 10 13 15 5 5 11 6 1 0 4 5 3 13 4 12 13 9 1 9 14 23 24 22 20 18 17 16 16 16 16 17 19 19 17 16 17 17 17 13 11 10 11 11 10 10
9 5 6 8 17 18 20 21 7 4 5 2 6 5 5 8 3 5 8 10 9 5 4 13 16 24 23 20 19 17 17 17 17 18 19 20 20 18 17 18 18 18 15 13 12 11 10 11 10
13 7 11 13 18 19 18 19 6 3 6 5 7 9 8 11 8 5 8 9 9 6 3 12 12 20 22 21 19 18 17 17 17 18 19 20 20 19 18 18 19 19 17 15 13 12 12 11 12
8 7 12 13 18 20 17 6 3 2 8 12 13 13 10 10 9 9 7 7 4 4 2 9 14 13 22 22 21 19 17 16 16 18 18 19 19 20 19 19 20 20 19 16 14 12 13 12 12
14 12 18 20 18 20 20 22 6 4 8 12 9 11 1 4 14 9 6 7 0 2 3 7 9 14 20 23 22 21 18 16 17 18 18 19 19 19 19 20 20 21 20 18 16 14 13 13 13
12 12 22 19 18 23 19 11 3 4 9 1 4 3 7 5 8 9 10 9 6 4 6 8 8 7 19 24 23 22 20 18 17 17 18 18 18 18 19 20 21 21 21 20 17 15 14 13 14
17 12 15 23 22 21 19 12 4 8 8 6 5 11 13 13 10 10 11 10 11 7 8 11 7 11 14 16 21 22 20 19 18 17 18 18 19 19 20 21 22 22 22 20 18 16 15 14 14
16 13 22 22 22 21 19 19 12 10 14 12 12 12 11 11 8 9 10 10 8 9 14 12 13 11 16 15 17 21 22 21 21 20 18 18 17 16 18 19 22 21 23 21 19 18 16 16 15
18 20 21 24 26 26 22 17 19 20 18 14 11 11 9 6 4 4 11 14 15 1 6 14 14 15 17 19 14 19 20 20 20 19 19 19 18 19 18 21 21 23 22 22 21 20 19 19 18
23 24 22 25 25 25 24 21 21 21 19 16 12 10 8 8 7 6 12 14 15 3 4 13 15 14 15 19 19 14 19 23 22 23 22 20 21 21 21 24 24 26 25 25 20 22 21 20 18
23 23 24 23 23 22 22 22 25 23 20 17 16 15 11 10 8 12 9 14 4 2 10 9 6 6 12 16 17 19 21 21 24 21 27 27 24 24 24 23 23 27 22 23 24 23 22 23 23
22 26 27 26 23 22 23 25 22 21 21 20 19 17 13 10 12 10 9 5 6 7 6 5 11 13 8 11 15 20 18 20 21 24 22 27 25 27 26 26 26 23 24 23 24 23 24 24 23
22 25 22 22 25 28 23 31 27 21 21 21 18 14 13 11 13 7 4 7 4 3 5 8 6 8 12 11 6 14 17 19 21 25 27 33 33 24 24 25 25 26 23 25 27 24 22 22 20
25 26 24 22 25 24 23 34 20 21 22 23 21 13 12 12 10 9 10 5 4 5 8 6 8 9 11 13 14 15 10 19 21 23 26 31 32 37 26 27 27 23 24 28 29 30 23 22 19
18 22 27 32 26 26 25 32 25 22 24 14 16 14 12 10 10 11 10 4 4 6 8 7 7 9 11 12 14 17 20 20 19 25 26 27 32 31 36 33 30 37 31 20 26 28 25 20 19
22 22 25 27 24 25 26 27 19 20 13 10 12 12 12 11 8 18 9 11 7 8 8 10 12 13 13 14 15 17 20 22 23 25 26 29 32 33 33 33 31 35 33 29 28 25 24 21 22
27 27 30 28 27 29 24 23 21 18 20 13 15 14 11 10 15 17 14 12 8 9 11 14 15 16 18 16 16 17 18 19 22 26 30 27 31 33 34 34 34 31 30 31 29 28 27 22 19
24 26 25 25 26 24 20 19 28 19 20 18 17 17 13 11 13 12 12 11 7 8 13 14 15 17 18 18 21 21 23 26 29 29 26 29 38 34 34 35 34 33 32 33 31 32 24 20 27
25 22 22 24 23 26 19 17 24 29 21 19 18 16 16 15 14 11 9 10 9 11 12 14 17 18 19 19 20 20 22 24 25 30 36 37 37 39 34 36 36 36 30 17 30 29 29 22 24
18 20 23 21 14 11 10 8 21 26 21 23 18 11 15 15 12 10 8 8 9 15 15 15 18 20 19 22 21 22 22 22 27 33 31 31 33 39 39 42 39 36 36 36 29 28 26 24 21
18 12 13 16 18 14 22 10 15 25 25 19 12 15 16 14 10 10 8 10 15 16 16 18 19 21 23 23 22 22 23 24 27 30 35 35 37 41 40 41 39 40 36 35 34 28 27 27 23
7 5 10 12 11 9 23 15 12 13 12 16 17 19 15 13 12 9 12 15 17 17 17 19 20 22 23 22 23 24 27 28 28 28 32 35 36 33 40 41 37 37 35 34 38 39 34 38 31
11 1 4 6 7 11 8 12 17 9 19 15 22 16 14 12 12 9 11 13 16 18 19 20 21 23 24 23 25 27 27 28 30 30 31 35 38 30 30 36 37 37 34 40 38 37 39 34 34
18 11 5 5 4 6 4 4 4 5 14 23 19 7 13 14 11 11 11 14 16 18 20 22 24 25 26 25 28 29 28 26 28 30 31 35 39 30 24 43 36 36 37 36 40 40 34 37 30
5 10 20 14 12 5 6 5 4 6 20 16 13 8 11 14 11 9 11 15 17 19 20 21 23 25 25 27 29 31 28 27 28 31 33 41 41 37 26 30 30 30 36 36 35 26 28 31 32
15 7 5 6 4 4 5 11 1 12 15 15 16 11 11 11 12 11 10 15 17 19 20 20 21 25 26 28 28 28 29 28 28 25 28 25 33 34 26 25 27 32 35 35 36 30 28 30 27
15 15 4 4 7 4 4 2 12 12 15 9 11 11 12 13 11 11 10 17 19 20 21 21 24 26 28 29 29 29 31 31 29 29 32 33 24 26 28 29 32 31 33 33 33 32 30 30 28
6 8 5 4 2 2 2 2 9 6 7 5 8 11 12 13 13 12 13 19 20 20 21 23 25 27 30 30 30 29 31 31 30 31 32 33 29 16 27 30 27 33 33 32 32 29 30 30 29
Wind_Direction
252 258 257 266 249 226 265 263 268 102 129 71 33 322 348 333 336 56 86 37 17 135 169 182 185 180 182 183 185 189 194 196 195 194 193 189 183 176 169 167 169 167 169 177 180 182 187 194 202
259 266 254 274 247 268 265 271 49 59 69 82 65 288 264 279 61 64 39 9 1 110 164 190 188 189 191 191 192 194 198 201 204 200 196 194 188 183 179 178 178 174 171 186 193 188 193 199 202
253 259 266 232 237 250 276 347 51 84 76 49 353 152 330 0 72 49 31 359 358 314 186 180 201 200 198 201 200 197 197 202 206 204 200 197 193 189 189 187 185 182 180 185 195 205 201 204 204
256 212 251 257 260 268 282 306 99 119 137 231 276 286 179 88 74 57 24 2 1 335 229 199 202 200 200 205 205 202 200 202 205 204 201 199 197 196 194 194 190 187 186 191 209 209 214 210 212
255 269 245 251 258 266 267 275 123 168 297 249 201 256 283 161 151 93 24 9 5 349 234 175 204 211 208 205 207 204 204 203 204 201 199 200 200 202 202 200 199 194 194 201 211 208 215 219 221
248 248 256 255 259 260 260 278 31 262 247 257 268 259 259 285 154 71 10 10 6 341 218 180 192 210 212 207 206 210 206 204 202 200 201 203 205 207 208 206 204 204 203 205 210 218 221 221 221
253 269 261 268 276 285 296 303 206 245 276 264 289 264 242 314 60 36 337 314 193 111 205 185 201 215 212 209 207 210 207 203 203 205 207 208 210 211 214 211 210 207 206 210 215 215 223 231 226
243 267 270 272 273 275 284 291 28 318 272 281 9 225 229 162 46 352 312 292 258 144 183 213 219 233 204 204 206 209 208 205 204 206 207 209 213 215 218 214 214 213 210 214 218 222 221 226 232
262 256 260 260 262 272 275 297 315 299 276 273 274 240 273 313 330 315 294 287 271 171 188 201 228 218 203 201 209 206 207 207 206 206 207 207 208 212 214 215 215 216 217 219 223 224 229 229 223
240 248 244 263 284 293 303 303 299 244 258 227 232 258 238 246 279 301 295 285 268 270 167 190 210 200 193 198 209 211 208 207 208 209 209 207 202 209 210 219 213 218 220 222 227 228 228 230 230
249 246 261 274 292 305 304 291 296 287 270 257 268 261 264 246 249 254 285 280 278 20 180 187 192 211 219 207 206 201 202 209 213 208 207 214 205 205 210 214 215 217 220 226 229 229 224 225 224
262 260 264 276 284 288 290 299 272 272 278 280 274 281 275 268 258 222 246 261 276 256 313 187 194 190 198 209 214 199 201 203 206 212 205 208 207 211 212 209 217 214 219 223 221 230 229 222 222
268 276 268 268 276 273 287 269 278 267 278 272 259 256 247 235 252 251 250 258 267 49 27 27 47 230 213 212 217 217 218 212 211 212 209 206 210 208 215 211 207 211 207 215 216 220 220 221 223
282 284 284 285 289 288 280 274 268 264 268 265 263 254 242 209 230 226 220 263 75 57 356 14 348 340 337 233 227 233 235 229 221 217 217 208 213 213 213 216 214 209 213 213 219 220 221 221 224
270 265 274 266 271 269 268 272 255 267 258 260 242 238 233 215 212 204 171 54 14 41 32 38 326 330 332 315 327 238 239 241 234 224 225 225 219 213 214 211 213 217 205 209 217 220 223 227 217
275 275 276 267 270 265 242 262 257 265 244 238 246 240 215 221 204 163 101 71 8 17 41 1 342 331 325 322 311 288 280 243 239 237 225 226 219 222 223 224 225 213 202 206 208 212 212 211 214
254 264 267 280 270 269 249 255 249 251 261 242 223 232 214 195 179 133 111 147 61 24 29 356 340 334 335 318 308 297 284 271 257 238 239 229 222 225 220 222 224 223 211 209 203 205 202 202 207
271 268 272 271 273 270 260 265 261 244 239 209 246 223 202 211 164 116 136 81 49 38 13 8 1 348 334 317 303 293 283 279 262 254 239 234 227 220 217 223 227 215 210 213 202 197 199 200 207
268 270 280 281 287 298 293 312 252 231 249 210 211 229 216 194 119 114 90 86 48 31 20 8 359 352 346 334 324 310 300 293 272 261 246 247 233 221 213 217 222 214 206 201 197 198 195 194 198
278 273 275 272 285 282 313 306 294 259 262 218 223 223 206 172 126 108 100 75 56 29 22 4 357 351 343 335 327 314 303 296 290 285 274 253 237 231 222 218 216 217 210 205 198 192 195 192 197
270 267 277 280 301 302 302 280 275 280 262 258 230 230 190 136 119 111 83 61 37 47 22 3 355 347 340 335 327 319 309 301 282 274 275 265 240 232 222 223 219 214 223 223 215 199 188 183 179
273 259 270 280 284 271 321 284 270 278 268 237 223 196 117 105 97 84 65 48 33 38 21 3 353 346 343 340 332 323 310 294 288 291 286 275 254 224 225 220 220 214 220 210 210 223 198 188 176
266 342 298 276 272 284 267 263 269 252 254 251 147 121 99 86 83 76 60 36 40 28 15 8 356 348 342 337 330 319 305 293 288 286 286 282 274 231 226 214 214 215 211 213 200 200 198 201 178
151 308 301 277 259 247 253 237 277 286 249 157 138 103 109 111 86 64 51 40 28 21 13 7 356 346 339 332 323 311 301 295 290 285 283 282 282 263 226 219 208 210 208 205 207 205 216 194 188
167 159 247 224 215 248 244 236 249 317 352 148 100 133 121 96 81 53 39 32 21 16 9 2 356 345 335 330 321 312 300 293 286 281 275 276 274 282 264 218 209 201 198 207 215 210 213 194 193
201 194 222 247 249 277 180 248 224 34 86 66 84 51 93 87 77 57 45 33 17 11 10 5 357 341 334 333 324 316 306 297 290 285 271 268 267 270 242 226 221 214 205 198 202 213 209 188 203
196 215 234 275 286 281 205 210 201 177 104 106 113 113 79 75 63 51 42 34 22 13 10 8 360 342 334 332 326 323 315 313 303 297 280 269 259 258 249 226 221 207 210 211 210 208 218 220 222
208 175 207 210 263 256 237 204 73 175 141 130 125 99 73 63 49 40 36 34 28 17 9 5 359 348 340 336 330 328 324 321 316 318 321 320 248 251 241 227 218 213 211 206 204 204 214 215 203
207 222 195 274 243 265 319 78 38 49 56 81 93 67 58 47 37 29 28 33 31 14 7 4 358 355 350 342 335 337 337 335 332 346 344 337 323 248 230 215 210 208 201 206 204 206 202 206 213
242 231 191 247 309 227 357 349 114 109 163 143 98 71 65 49 32 24 21 23 21 12 2 5 359 357 353 345 345 346 345 346 341 353 350 345 335 312 247 231 217 203 198 198 197 188 195 203 204